| time (UTC) | temp F | wind direction | speed knots | gust knots | rain 1hr in | rain 24hr in | rain mn in | humidity % | barometer mb |
| 20260507074506 | 51 | 64 | 0.9 | 3.5 | 0.00 | 0.00 | 0.00 | 75 | 1014.2 |
| 20260507074433 | 50 | 60 | 1.7 | 3.5 | 0.00 | 0.00 | 0.00 | 75 | 1014.0 |
| 20260507073006 | 50 | 74 | 0.9 | 3.5 | 0.00 | 0.00 | 0.00 | 76 | 1014.0 |
| 20260507071505 | 49 | 71 | 0.9 | 1.7 | 0.00 | 0.00 | 0.00 | 77 | 1013.8 |
| 20260507071433 | 49 | 72 | 0.9 | 1.7 | 0.00 | 0.00 | 0.00 | 77 | 1014.0 |
| 20260507070218 | 48 | 83 | 1.7 | 3.5 | 0.00 | 0.00 | 0.00 | 78 | 1014.1 |
| 20260507064504 | 48 | 68 | 0.9 | 3.5 | 0.00 | 0.00 | 0.00 | 79 | 1014.0 |
| 20260507064433 | 48 | 62 | 0.9 | 3.5 | 0.00 | 0.00 | 0.00 | 79 | 1014.0 |
| 20260507061505 | 47 | 54 | 0.9 | 1.7 | 0.00 | 0.00 | 0.00 | 82 | 1013.8 |
| 20260507061433 | 47 | 51 | 0.9 | 1.7 | 0.00 | 0.00 | 0.00 | 82 | 1013.8 |
| 20260507060003 | 46 | 62 | 1.7 | 3.5 | 0.00 | 0.00 | 0.00 | 83 | 1013.8 |
| 20260507054505 | 46 | 49 | 1.7 | 1.7 | 0.00 | 0.00 | 0.00 | 84 | 1013.8 |
| 20260507054433 | 46 | 49 | 0.9 | 1.7 | 0.00 | 0.00 | 0.00 | 84 | 1013.5 |
| 20260507053005 | 45 | 67 | 0.0 | 1.7 | 0.00 | 0.00 | 0.00 | 84 | 1013.5 |
| 20260507051505 | 45 | 67 | 0.9 | 1.7 | 0.00 | 0.00 | 0.00 | 84 | 1013.6 |
| 20260507051433 | 45 | 67 | 0.0 | 1.7 | 0.00 | 0.00 | 0.00 | 84 | 1013.5 |
| 20260507050005 | 44 | 67 | 0.0 | 1.7 | 0.00 | 0.00 | 0.00 | 85 | 1013.5 |
| 20260507044433 | 44 | 67 | 0.0 | 1.7 | 0.00 | 0.00 | 0.00 | 85 | 1013.3 |
| 20260507043005 | 44 | 67 | 0.0 | 1.7 | 0.00 | 0.00 | 0.00 | 85 | 1013.2 |
| 20260507041504 | 44 | 52 | 0.0 | 1.7 | 0.00 | 0.00 | 0.00 | 85 | 1013.0 |
| 20260507041433 | 44 | 52 | 0.0 | 1.7 | 0.00 | 0.00 | 0.00 | 85 | 1013.3 |
| 20260507040005 | 45 | 45 | 0.0 | 1.7 | 0.00 | 0.00 | 0.00 | 84 | 1013.2 |
| 20260507034503 | 45 | 59 | 0.0 | 1.7 | 0.00 | 0.00 | 0.00 | 85 | 1013.2 |
| 20260507034433 | 45 | 67 | 0.0 | 1.7 | 0.00 | 0.00 | 0.00 | 85 | 1013.3 |
| 20260507033217 | 45 | 90 | 0.0 | 3.5 | 0.00 | 0.00 | 0.00 | 85 | 1013.0 |
| 20260507031505 | 45 | 60 | 1.7 | 5.2 | 0.00 | 0.00 | 0.00 | 85 | 1013.2 |
| 20260507031433 | 45 | 58 | 1.7 | 5.2 | 0.00 | 0.00 | 0.00 | 85 | 1013.2 |
| 20260507030218 | 45 | 51 | 0.9 | 3.5 | 0.00 | 0.00 | 0.00 | 86 | 1013.3 |
| 20260507024505 | 45 | 45 | 0.0 | 1.7 | 0.00 | 0.00 | 0.00 | 85 | 1013.0 |
| 20260507024433 | 45 | 45 | 0.0 | 1.7 | 0.00 | 0.00 | 0.00 | 85 | 1013.2 |
| 20260507023003 | 45 | 45 | 0.0 | 1.7 | 0.00 | 0.00 | 0.00 | 85 | 1013.0 |
| 20260507021503 | 45 | 45 | 0.0 | 1.7 | 0.00 | 0.00 | 0.00 | 85 | 1013.0 |
| 20260507021433 | 45 | 45 | 0.0 | 1.7 | 0.00 | 0.00 | 0.00 | 85 | 1012.9 |
| 20260507020218 | 45 | 45 | 0.0 | 1.7 | 0.00 | 0.00 | 0.00 | 85 | 1013.0 |
| 20260507014504 | 45 | 0 | 0.0 | 0.0 | 0.00 | 0.00 | 0.00 | 84 | 1013.0 |
| 20260507014433 | 45 | 0 | 0.0 | 0.0 | 0.00 | 0.00 | 0.00 | 84 | 1012.8 |
| 20260507013003 | 46 | 45 | 0.0 | 1.7 | 0.00 | 0.00 | 0.00 | 84 | 1012.8 |
| 20260507011505 | 46 | 79 | 0.0 | 1.7 | 0.00 | 0.00 | 0.00 | 84 | 1012.8 |
| 20260507011433 | 46 | 79 | 0.0 | 1.7 | 0.00 | 0.00 | 0.00 | 83 | 1012.6 |
| 20260507010005 | 46 | 121 | 0.0 | 1.7 | 0.00 | 0.00 | 0.00 | 83 | 1012.7 |
| 20260507004719 | 47 | 70 | 0.0 | 1.7 | 0.00 | 0.00 | 0.00 | 82 | 1012.8 |
| 20260507004433 | 47 | 51 | 0.0 | 1.7 | 0.00 | 0.00 | 0.00 | 82 | 1012.8 |
| 20260507003003 | 47 | 67 | 0.9 | 1.7 | 0.00 | 0.00 | 0.00 | 81 | 1012.8 |
| 20260507001508 | 47 | 59 | 0.0 | 1.7 | 0.00 | 0.00 | 0.00 | 81 | 1012.7 |
| 20260507001433 | 47 | 56 | 0.0 | 1.7 | 0.00 | 0.00 | 0.00 | 81 | 1013.0 |
| 20260507000003 | 47 | 45 | 0.9 | 1.7 | 0.00 | 0.00 | 0.00 | 81 | 1012.8 |
| 20260506234505 | 47 | 67 | 1.7 | 1.7 | 0.00 | 0.00 | 0.00 | 82 | 1012.9 |
| 20260506234433 | 48 | 70 | 0.9 | 1.7 | 0.00 | 0.00 | 0.00 | 82 | 1012.9 |
| 20260506233005 | 48 | 71 | 0.9 | 3.5 | 0.00 | 0.00 | 0.00 | 82 | 1012.9 |
| 20260506231503 | 48 | 72 | 1.7 | 3.5 | 0.00 | 0.00 | 0.00 | 82 | 1012.6 |
| 20260506231433 | 48 | 74 | 0.0 | 1.7 | 0.00 | 0.00 | 0.00 | 82 | 1012.7 |
| 20260506230005 | 48 | 67 | 0.9 | 3.5 | 0.00 | 0.00 | 0.00 | 82 | 1012.6 |
| 20260506224504 | 48 | 68 | 1.7 | 3.5 | 0.00 | 0.00 | 0.00 | 81 | 1012.6 |
| 20260506224433 | 48 | 65 | 0.9 | 3.5 | 0.00 | 0.00 | 0.00 | 81 | 1012.6 |
| 20260506223003 | 48 | 22 | 0.0 | 1.7 | 0.00 | 0.00 | 0.00 | 81 | 1012.7 |
| 20260506221720 | 48 | 13 | 0.0 | 1.7 | 0.00 | 0.00 | 0.00 | 81 | 1012.8 |
| 20260506221433 | 49 | 12 | 0.0 | 1.7 | 0.00 | 0.00 | 0.00 | 80 | 1012.6 |
| 20260506220219 | 49 | 360 | 0.0 | 1.7 | 0.00 | 0.00 | 0.00 | 79 | 1012.3 |
| 20260506214505 | 49 | 360 | 0.0 | 1.7 | 0.00 | 0.00 | 0.00 | 79 | 1012.5 |
| 20260506214433 | 49 | 33 | 0.0 | 1.7 | 0.00 | 0.00 | 0.00 | 79 | 1012.6 |
| 20260506213218 | 49 | 59 | 0.0 | 1.7 | 0.00 | 0.00 | 0.00 | 80 | 1012.5 |
| 20260506211717 | 49 | 18 | 0.9 | 3.5 | 0.00 | 0.00 | 0.00 | 79 | 1012.5 |
| 20260506211433 | 49 | 13 | 0.0 | 3.5 | 0.00 | 0.00 | 0.00 | 79 | 1012.3 |
| 20260506210005 | 49 | 5 | 0.9 | 1.7 | 0.00 | 0.00 | 0.00 | 78 | 1012.1 |
| 20260506204505 | 49 | 287 | 0.0 | 3.5 | 0.00 | 0.00 | 0.00 | 77 | 1012.3 |
| 20260506204433 | 49 | 283 | 0.0 | 3.5 | 0.00 | 0.00 | 0.00 | 77 | 1012.2 |
| 20260506203005 | 49 | 8 | 0.9 | 1.7 | 0.00 | 0.00 | 0.00 | 76 | 1012.2 |
| 20260506201503 | 49 | 281 | 0.9 | 3.5 | 0.00 | 0.00 | 0.00 | 74 | 1012.1 |
| 20260506201433 | 49 | 283 | 0.0 | 3.5 | 0.00 | 0.00 | 0.00 | 74 | 1012.0 |
| 20260506200218 | 50 | 303 | 0.0 | 1.7 | 0.00 | 0.00 | 0.00 | 72 | 1011.8 |
| 20260506194506 | 50 | 18 | 0.0 | 1.7 | 0.00 | 0.00 | 0.00 | 70 | 1011.6 |
| 20260506194433 | 50 | 20 | 0.0 | 1.7 | 0.00 | 0.00 | 0.00 | 70 | 1011.8 |
| 20260506193003 | 51 | 4 | 0.9 | 3.5 | 0.00 | 0.00 | 0.00 | 69 | 1011.4 |
| 20260506191505 | 51 | 4 | 0.0 | 1.7 | 0.00 | 0.00 | 0.00 | 68 | 1011.7 |
| 20260506191433 | 51 | 7 | 0.0 | 1.7 | 0.00 | 0.00 | 0.00 | 67 | 1011.5 |
| 20260506190006 | 52 | 31 | 0.9 | 1.7 | 0.00 | 0.00 | 0.00 | 70 | 1011.6 |
| 20260506184504 | 52 | 45 | 0.0 | 1.7 | 0.00 | 0.00 | 0.00 | 70 | 1011.3 |
| 20260506184433 | 52 | 45 | 0.0 | 1.7 | 0.00 | 0.00 | 0.00 | 70 | 1011.2 |
| 20260506181505 | 52 | 59 | 0.9 | 3.5 | 0.00 | 0.00 | 0.00 | 68 | 1011.0 |
| 20260506181433 | 52 | 59 | 2.6 | 3.5 | 0.00 | 0.00 | 0.00 | 68 | 1011.1 |
| 20260506180005 | 53 | 60 | 0.9 | 3.5 | 0.00 | 0.00 | 0.00 | 67 | 1010.8 |
| 20260506174510 | 53 | 24 | 0.9 | 3.5 | 0.00 | 0.00 | 0.00 | 63 | 1010.9 |
| 20260506174433 | 53 | 25 | 1.7 | 3.5 | 0.00 | 0.00 | 0.00 | 63 | 1010.6 |
| 20260506173003 | 53 | 59 | 0.9 | 5.2 | 0.00 | 0.00 | 0.00 | 63 | 1010.8 |
| 20260506171505 | 53 | 45 | 1.7 | 3.5 | 0.00 | 0.00 | 0.00 | 63 | 1010.7 |
| 20260506171433 | 53 | 40 | 1.7 | 3.5 | 0.00 | 0.00 | 0.00 | 63 | 1010.7 |
| 20260506170005 | 53 | 37 | 1.7 | 5.2 | 0.00 | 0.00 | 0.00 | 61 | 1010.6 |
| 20260506164503 | 53 | 39 | 0.9 | 5.2 | 0.00 | 0.00 | 0.00 | 62 | 1010.6 |
| 20260506164433 | 53 | 40 | 1.7 | 5.2 | 0.00 | 0.00 | 0.00 | 62 | 1010.7 |
| 20260506163218 | 53 | 48 | 1.7 | 5.2 | 0.00 | 0.00 | 0.00 | 63 | 1010.7 |
| 20260506161505 | 52 | 48 | 1.7 | 7.0 | 0.00 | 0.00 | 0.00 | 63 | 1010.7 |
| 20260506161433 | 52 | 46 | 1.7 | 7.0 | 0.00 | 0.00 | 0.00 | 63 | 1010.7 |
| 20260506160003 | 53 | 56 | 1.7 | 7.8 | 0.00 | 0.00 | 0.00 | 65 | 1010.9 |
| 20260506154719 | 52 | 34 | 1.7 | 7.8 | 0.00 | 0.00 | 0.00 | 66 | 1010.7 |
| 20260506154433 | 53 | 32 | 4.3 | 7.8 | 0.00 | 0.00 | 0.00 | 65 | 1010.7 |
| 20260506153218 | 53 | 42 | 1.7 | 7.0 | 0.00 | 0.00 | 0.00 | 65 | 1010.7 |
| 20260506151503 | 53 | 41 | 1.7 | 7.0 | 0.00 | 0.00 | 0.00 | 63 | 1010.6 |
| 20260506151433 | 53 | 46 | 1.7 | 7.0 | 0.00 | 0.00 | 0.00 | 63 | 1010.6 |
| 20260506150003 | 53 | 35 | 3.5 | 12.2 | 0.00 | 0.00 | 0.00 | 64 | 1010.5 |
| 20260506144504 | 54 | 30 | 3.5 | 6.1 | 0.00 | 0.00 | 0.00 | 62 | 1010.5 |
| 20260506144433 | 54 | 27 | 3.5 | 6.1 | 0.00 | 0.00 | 0.00 | 62 | 1010.6 |
| 20260506143005 | 54 | 359 | 1.7 | 5.2 | 0.00 | 0.00 | 0.00 | 61 | 1010.6 |
| 20260506141719 | 53 | 349 | 1.7 | 3.5 | 0.00 | 0.00 | 0.00 | 62 | 1010.3 |
| 20260506141433 | 53 | 343 | 1.7 | 5.2 | 0.00 | 0.00 | 0.00 | 64 | 1010.5 |
| 20260506140005 | 54 | 349 | 1.7 | 6.1 | 0.00 | 0.00 | 0.00 | 63 | 1010.7 |
| 20260506134503 | 57 | 358 | 1.7 | 7.8 | 0.00 | 0.00 | 0.00 | 58 | 1010.5 |
| 20260506134433 | 57 | 342 | 2.6 | 7.8 | 0.00 | 0.00 | 0.00 | 59 | 1010.5 |
| 20260506133220 | 55 | 343 | 1.7 | 7.0 | 0.00 | 0.00 | 0.00 | 61 | 1010.5 |
| 20260506131505 | 54 | 338 | 1.7 | 7.8 | 0.00 | 0.00 | 0.00 | 62 | 1010.7 |
| 20260506131433 | 54 | 349 | 3.5 | 7.8 | 0.00 | 0.00 | 0.00 | 62 | 1010.7 |
| 20260506130219 | 54 | 16 | 1.7 | 7.0 | 0.00 | 0.00 | 0.00 | 61 | 1010.7 |
| 20260506124505 | 53 | 5 | 2.6 | 6.1 | 0.00 | 0.00 | 0.00 | 65 | 1010.7 |
| 20260506124433 | 53 | 8 | 1.7 | 6.1 | 0.00 | 0.00 | 0.00 | 64 | 1010.4 |
| 20260506123005 | 54 | 352 | 1.7 | 3.5 | 0.00 | 0.00 | 0.00 | 65 | 1010.6 |
| 20260506121503 | 54 | 314 | 1.7 | 5.2 | 0.00 | 0.00 | 0.00 | 63 | 1010.6 |
| 20260506121433 | 54 | 311 | 1.7 | 5.2 | 0.00 | 0.00 | 0.00 | 63 | 1010.7 |
| 20260506120219 | 54 | 15 | 2.6 | 7.8 | 0.00 | 0.00 | 0.00 | 64 | 1010.8 |
| 20260506114505 | 52 | 14 | 1.7 | 5.2 | 0.00 | 0.00 | 0.00 | 68 | 1010.8 |
| 20260506114433 | 52 | 14 | 1.7 | 5.2 | 0.00 | 0.00 | 0.00 | 68 | 1010.8 |
| 20260506113217 | 51 | 27 | 3.5 | 7.0 | 0.00 | 0.00 | 0.00 | 72 | 1010.6 |
| 20260506111433 | 52 | 23 | 2.6 | 7.8 | 0.00 | 0.00 | 0.00 | 68 | 1010.7 |
| 20260506110003 | 53 | 2 | 1.7 | 6.1 | 0.00 | 0.00 | 0.00 | 64 | 1010.5 |
| 20260506104505 | 53 | 341 | 1.7 | 6.1 | 0.00 | 0.00 | 0.00 | 65 | 1010.7 |
| 20260506104433 | 53 | 343 | 1.7 | 7.8 | 0.00 | 0.00 | 0.00 | 65 | 1010.7 |
| 20260506103004 | 54 | 21 | 1.7 | 7.8 | 0.00 | 0.00 | 0.00 | 61 | 1010.6 |
| 20260506101503 | 54 | 36 | 2.6 | 9.6 | 0.00 | 0.00 | 0.00 | 62 | 1010.6 |
| 20260506101433 | 54 | 32 | 5.2 | 9.6 | 0.00 | 0.00 | 0.00 | 60 | 1010.7 |
| 20260506100218 | 54 | 27 | 2.6 | 7.0 | 0.00 | 0.00 | 0.00 | 60 | 1010.6 |
| 20260506094503 | 52 | 348 | 3.5 | 7.0 | 0.00 | 0.00 | 0.00 | 64 | 1010.6 |
| 20260506094433 | 52 | 337 | 3.5 | 7.0 | 0.00 | 0.00 | 0.00 | 64 | 1010.7 |
| 20260506093003 | 53 | 18 | 2.6 | 7.0 | 0.00 | 0.00 | 0.00 | 64 | 1010.9 |
| 20260506091719 | 53 | 328 | 2.6 | 7.0 | 0.00 | 0.00 | 0.00 | 61 | 1010.6 |
| 20260506091433 | 52 | 330 | 1.7 | 7.0 | 0.00 | 0.00 | 0.00 | 64 | 1010.8 |
| 20260506090004 | 51 | 358 | 2.6 | 7.0 | 0.00 | 0.00 | 0.00 | 67 | 1010.8 |
| 20260506084717 | 51 | 356 | 1.7 | 7.8 | 0.00 | 0.00 | 0.00 | 68 | 1010.5 |
| 20260506084433 | 51 | 11 | 1.7 | 9.6 | 0.00 | 0.00 | 0.00 | 69 | 1010.5 |
| 20260506083003 | 50 | 345 | 3.5 | 7.0 | 0.00 | 0.00 | 0.00 | 71 | 1010.5 |
| 20260506081718 | 49 | 23 | 2.6 | 9.6 | 0.00 | 0.00 | 0.00 | 72 | 1010.4 |
| 20260506081433 | 49 | 9 | 3.5 | 9.6 | 0.00 | 0.00 | 0.00 | 73 | 1010.7 |